Regional Weather Roundup
Issued by NWS

Home | Current Version | Previous Version | Text Only | Print | Product List | Glossary On
Versions: 1 2 3 4 5 6 7 8 9 10 11 12 13 14 15 16 17 18 19 20 21 22 23 24 25 26 27 28 29 30 31 32 33 34 35 36 37 38 39 40 41 42 43 44 45 46 47 48 49 50
000
ASUS45 KCYS 011310
RWRWY

WYOMING REGIONAL WEATHER ROUNDUP
NATIONAL WEATHER SERVICE CHEYENNE WY
700 AM MDT SAT OCT 01 2016

NOTE:  "FAIR" INDICATES FEW OR NO CLOUDS BELOW 12,000 FEET
WITH NO SIGNIFICANT WEATHER AND/OR OBSTRUCTIONS TO VISIBILITY.

WYZ001-011400-
YELLOWSTONE NATIONAL PARK

CITY           SKY/WX    TMP DP  RH WIND       PRES   REMARKS
LK YELLOWSTONE   N/A     31  31 100 CALM      30.25S
W YELLOWSTONE  NOT AVBL

$$
WYZ002>013-054>058-071-098>099-011400-
NORTHERN WYOMING

CITY           SKY/WX    TMP DP  RH WIND       PRES   REMARKS
JACKSON        CLEAR     32  30  93 CALM      30.21S
CODY           FAIR      53  41  63 SW7       30.08S
GREYBULL       FAIR      50  47  89 SW5       30.03S
WORLAND        FAIR      46  43  89 CALM      30.04F
SHERIDAN       FAIR      47  42  83 S3        30.02F
BUFFALO        FAIR      54  39  57 SW8       30.08F
GILLETTE       FAIR      47  45  93 CALM      30.05S
HULETT         FAIR      50  45  81 S6        30.07S
NEWCASTLE      FAIR      50  43  76 NE5       30.07S

$$
WYZ014>020-022>026-101>103-011400-
CENTRAL WYOMING

CITY           SKY/WX    TMP DP  RH WIND       PRES   REMARKS
BIG PINEY      FAIR      33  31  92 CALM      30.24S
PINEDALE       FAIR      32  32 100 NW6       30.25S WCI  26
DUBOIS         FAIR      39  34  81 NW12      30.21S WCI  32
LANDER         FAIR      49  40  71 CALM      30.12S
RIVERTON       FAIR      49  43  80 W7        30.13R
CASPER         FAIR      49  41  74 SW10      30.13R
DOUGLAS        FAIR      40  38  93 CALM      30.12S

$$
WYZ021-027>030-104>119-011400-
SOUTHERN WYOMING

CITY           SKY/WX    TMP DP  RH WIND       PRES   REMARKS
EVANSTON       FAIR      47  37  68 CALM      30.22R
FORT BRIDGER   FAIR      47  39  75 CALM      30.24S
ROCK SPRINGS   FAIR      46  40  79 S7        30.22R
DIXON          FAIR      41  38  88 SE5       30.27S
RAWLINS        FAIR      42  38  85 SW3       30.24R
SARATOGA       FAIR      41  39  93 SE9       30.26S
LARAMIE        FAIR      37  35  92 SE9       30.25R WCI  30
CHEYENNE       FAIR      50  40  68 W10       30.18R
TORRINGTON     FAIR      45  43  93 CALM      30.07S
PINE BLUFFS    FAIR      41  39  93 SW5       30.14S

$$



USA.gov is the U.S. government's official web portal to all federal, state and local government web resources and services.